Regional Weather Roundup
Issued by NWS

Home | Current Version | Previous Version | Text Only | Print | Product List | Glossary On
Versions: 1 2 3 4 5 6 7 8 9 10 11 12 13 14 15 16 17 18 19 20 21 22 23 24 25 26 27
000
ASUS45 KPSR 211910
RWRAZ

ARIZONA HOURLY REGIONAL WEATHER ROUNDUP
NATIONAL WEATHER SERVICE PHOENIX AZ
1200 PM MST WED FEB 21 2018

NOTE: FAIR INDICATES FEW OR NO CLOUDS BELOW 12,000 FEET WITH NO
SIGNIFICANT WEATHER AND/OR OBSTRUCTIONS TO VISIBILITY.

AZZ001>003-036-212000-
NORTHWEST ARIZONA

CITY           SKY/WX    TMP DP  RH WIND       PRES   REMARKS
BULLHEAD CITY  CLOUDY    48   7  18 SW6       30.15F
KINGMAN        CLOUDY    40   2  20 CALM      30.09S
$$

AZZ004>008-015-016-018-212000-
NORTH CENTRAL ARIZONA

CITY           SKY/WX    TMP DP  RH WIND       PRES   REMARKS
GRAND CANYON   CLOUDY    30   7  37 SW12      30.01F WCI  20
WILLIAMS       FAIR      32   3  29 SW12G21   29.99S WCI  23
PRESCOTT       PTSUNNY   40   2  20 W10       30.04S WCI  33
FLAGSTAFF      FAIR      29   6  38 S9G17     29.99F WCI  20
PAYSON         FAIR      41  18  38 S9G17     30.05F
PAGE           FAIR      36   7  29 E5        30.08F WCI  32
$$

AZZ009>014-017-212000-
NORTHEAST ARIZONA

CITY           SKY/WX    TMP DP  RH WIND       PRES   REMARKS
WINSLOW        FAIR      39   6  25 VRB3      30.03F
SAINT JOHNS    FAIR      43  20  39 W5        30.01F
WINDOW ROCK    CLOUDY    35  20  54 S9G17     30.04F WCI  28
SHOW LOW       FAIR      39  27  60 S17G26    30.03F WCI  30
$$

AZZ540-542>544-546-548-212000-
GREATER PHOENIX AREA

CITY           SKY/WX    TMP DP  RH WIND       PRES   REMARKS
PHOENIX        FAIR      55  17  22 CALM      30.09F
BUCKEYE        FAIR      54   7  15 W3        30.12F
GLENDALE       SUNNY     55  14  19 CALM      30.12F
LUKE AFB       FAIR      55  13  18 SW3       30.09F
DEER VALLEY    FAIR      54  10  17 VRB6      30.09S
SCOTTSDALE     FAIR      55  18  23 VRB6      30.10F
MESA-FALCON    SUNNY     54  19  26 VRB6      30.10F
MESA-GATEWAY   MOSUNNY   54  25  32 VRB5      30.11F
CHANDLER       SUNNY     55  18  22 SW6       30.10F
$$

AZZ539-553-212000-
SOUTHWEST MARICOPA COUNTY AND PINAL COUNTY

CITY           SKY/WX    TMP DP  RH WIND       PRES   REMARKS
CASA GRANDE      N/A     54  16  22 S3        30.11F
GILA BEND      SUNNY     54   6  14 NW3       30.11S
$$

AZZ503-504-507>509-212000-
SOUTHEAST ARIZONA

CITY           SKY/WX    TMP DP  RH WIND       PRES   REMARKS
TUCSON         FAIR      56  30  37 S12       30.08F
DAVIS-MONTHAN  FAIR      56  33  41 S12G17    30.06F
RYAN FIELD     SUNNY     54  28  37 W3        30.09F
NOGALES        FAIR      55  29  36 S9G23     30.07F
SIERRA VISTA   FAIR      52  25  34 S7G18     30.06F
DOUGLAS        PTSUNNY   56  29  35 S16       30.07F
SAFFORD        FAIR      55  33  43 SE10      30.05F
$$

AZZ532-212000-
SOUTHWEST ARIZONA

CITY           SKY/WX    TMP DP  RH WIND       PRES   REMARKS
YUMA           FAIR      58   8  13 W5        30.14S
$$

CAZ041-043-047-048-061-525>527-560>570-212000-
SOUTHERN CALIFORNIA

CITY           SKY/WX    TMP DP  RH WIND       PRES   REMARKS
DOWNTOWN L.A.  FAIR      57  28  33 CALM      30.13F
L.A. AIRPORT   FAIR      58  31  35 S3        30.14F
SAN DIEGO      PTSUNNY   57  39  51 S8G17     30.18S
BURBANK        FAIR      54  19  25 CALM      30.12F
ONTARIO        FAIR      53  23  31 VRB6      30.13S
RIVERSIDE      FAIR      54  18  24 S5        30.14S
PALM SPRINGS   FAIR      59  17  19 CALM      30.14S
EL CENTRO NAS  FAIR      60  23  24 VRB7      30.15F
IMPERIAL       FAIR      59  24  26 VRB3      30.13F
BLYTHE         PTSUNNY   52   7  16 CALM      30.15S
NEEDLES        CLOUDY    51   4  14 N9        30.15F
$$

NVZ020-UTZ003-212000-
SOUTHERN NEVADA-UTAH

CITY           SKY/WX    TMP DP  RH WIND       PRES   REMARKS
LAS VEGAS      PTSUNNY   47   1  15 N6        30.13S
SALT LAKE CITY PTSUNNY   29  12  49 N6        30.15F WCI  23
$$

NMZ009-TXZ055-212000-
NEW MEXICO-WEST TEXAS

CITY           SKY/WX    TMP DP  RH WIND       PRES   REMARKS
ALBUQUERQUE    FAIR      44  22  41 CALM      30.10F
EL PASO        FAIR      56  29  35 SE10      30.09F
$$


........................KEY........................
SKY/WX - SKY CONDITION/WEATHER
TMP    - TEMPERATURE IN FAHRENHEIT
DP     - DEW POINT IN FAHRENHEIT
RH     - RELATIVE HUMIDITY IN PERCENT
WIND   - DIRECTION AND SPEED IN MILES PER HOUR (MPH)
VRB    - VARIABLE WIND DIRECTION
PRES   - MEAN SEA LEVEL PRESSURE IN INCHES OF MERCURY
         F - FALLING PRESSURE   R - RISING PRESSURE
         S - STEADY PRESSURE
VSB    - VISIBILITY IN MILES
HX     - HEAT INDEX IN FAHRENHEIT
WCI    - WIND CHILL INDEX IN FAHRENHEIT
TC     - TEMPERATURE IN CELSIUS WHICH IS ALSO KNOWN AS
         TEMPERATURE IN CENTIGRADE
AFB    - AIR FORCE BASE
         LUKE AFB IS LUKE AIR FORCE BASE
         DAVIS-MONTHAN IS DAVIS-MONTHAN AIR FORCE BASE
NAS    - NAVAL AIR STATION
         EL CENTRO NAS IS EL CENTRO NAVAL AIR STATION
N/A    - NOT AVAILABLE





USA.gov is the U.S. government's official web portal to all federal, state and local government web resources and services.